Location: Unspecified
(0.0000°N, 0.0000°E)
Time: 04:28:13
(UTC+01:00)

Cosmos 1954 Rocket - Visible Passes

Search period start: 29 November 2014 00:00
Search period end: 09 December 2014 00:00
Orbit: 753 x 783 km, 74.0° (Epoch: 27 November)

Date Brightness Start Highest point End Pass type
(mag) Time Alt. Az. Time Alt. Az. Time Alt. Az.
29 Nov 3.9 05:08:34 10° SSW 05:13:44 61° WNW 05:18:55 10° N visible
30 Nov 4.6 04:31:33 10° S 04:35:38 51° SSE 04:35:38 51° SSE visible
01 Dec 6.5 03:55:09 10° SSE 03:56:18 16° SSE 03:56:18 16° SSE visible
